Regional Weather Roundup
Issued by NWS Sterling, VA

Home | Current Version | Previous Version | Text Only | Print | Product List | Glossary Off
Versions: 1 2 3 4 5 6 7 8 9 10 11 12 13 14 15 16 17 18 19 20 21 22 23 24 25 26 27 28 29 30 31 32 33 34 35 36 37 38 39 40 41 42 43 44 45 46 47 48 49 50

000
ASUS41 KLWX 270510
RWRLWX

REGIONAL WEATHER ROUNDUP
NATIONAL WEATHER SERVICE BALTIMORE MD/WASHINGTON DC
100 AM EDT WED AUG 27 2014

Note: "FAIR" indicates few or no clouds below 12,000 feet
with no significant weather and/or obstructions to visibility.
 TC=TEMPERATURE CELSIUS

 * =Non NWS site. Station does not report precipitation (e.g. rain,
    snow, etc.), thunder, or fog.

DCZ001-MDZ009-015-VAZ040>042-051-053>054-270600-
WASHINGTON METRO
  /KDAA//-FT BELVOIR

CITY           SKY/WX    TMP DP  RH WIND       PRES   REMARKS
WASHINGTON NAT PTCLDY    73  64  73 SW3       30.09F
DULLES         CLEAR     64  63  96 CALM      30.09F
ANDREWS AFB    CLEAR     66  65  96 S3        30.08F
QUANTICO       CLEAR     68  65  90 NW7       30.09F
COLLEGE PARK*  CLEAR     64  64 100 CALM      30.08F
LEESBURG*      CLEAR     66  66 100 CALM      30.10F
MANASSAS*      CLEAR     66  66 100 CALM      30.09S
GAITHERSBURG*  CLEAR     64  61  88 CALM      30.13F

$$

MDZ006>007-011-014-270600-
BALTIMORE METRO

CITY           SKY/WX    TMP DP  RH WIND       PRES   REMARKS
BWI AIRPORT    CLEAR     65  62  90 CALM      30.08F
MD SCIENCE CTR   N/A     74  64  71 MISG      30.09F
MARTIN STATE   CLEAR     73  66  78 CALM      30.09F
ANNAPOLIS      CLEAR     72  66  81 S3        30.07F
FORT MEADE*    CLEAR     61  59  94 CALM      30.11S

$$

MDZ012-015-019>023-270600-
MARYLAND EASTERN SHORE

CITY           SKY/WX    TMP DP  RH WIND       PRES   REMARKS
OCEAN CITY     CLEAR     58  58 100 CALM      30.08S FOG
SALISBURY      PTCLDY    61  55  82 CALM      30.08F
BAY BRIDGE AP*   N/A     70  63  78 CALM      30.07F
CAMBRIDGE*     CLEAR     63  59  88 CALM      30.07F
EASTON*        CLEAR     65  64  99 CALM      30.12F

$$

MDZ017>025-270600-
SOUTHERN MARYLAND

CITY           SKY/WX    TMP DP  RH WIND       PRES   REMARKS
PATUXENT RIVER CLEAR     62  60  93 W5        30.07F
ST INIGOES     CLEAR     61  57  87 CALM      30.07F
LEONARDTOWN*   CLEAR     63  61  94 CALM      30.09F

$$

MDZ003>005-270600-
NORTH CENTRAL MARYLAND

CITY           SKY/WX    TMP DP  RH WIND       PRES   REMARKS
FREDERICK*     CLEAR    N/A N/A N/A CALM      30.12F HAZE
HAGERSTOWN APT CLEAR     68  62  81 E3        30.10F
WESTMINSTER*   NOT AVBL

$$

MDZ501>502-270600-
WESTERN MARYLAND

CITY           SKY/WX    TMP DP  RH WIND       PRES   REMARKS
OAKLAND*       CLEAR     63  57  82 SE6       30.18F
CUMBERLAND*    CLEAR     63  55  77 CALM      30.15F

$$

VAZ025>031-270600-
SHENANDOAH VALLEY

CITY           SKY/WX    TMP DP  RH WIND       PRES   REMARKS
WINCHESTER*    CLEAR     61  59  94 CALM      30.10F
STAUNTON*      CLEAR     58  55  91 CALM      30.16F

$$

WVZ021-048>050-054>055-270600-
EASTERN WEST VIRGINIA PANHANDLE

CITY           SKY/WX    TMP DP  RH WIND       PRES   REMARKS
MARTINSBURG    CLEAR     62  58  86 CALM      30.10F
PETERSBURG*    NOT AVBL

$$

VAZ036>039-050-270600-
CENTRAL FOOTHILLS

CITY           SKY/WX    TMP DP  RH WIND       PRES   REMARKS
CHARLOTTESVILL CLEAR     63  61  93 CALM      30.11F
ORANGE*        CLEAR     61  61 100 CALM      30.11F

$$

VAZ055>057-270600-
NORTH AND CENTRAL PIEDMONT

CITY           SKY/WX    TMP DP  RH WIND       PRES   REMARKS
FREDERICKSBRG* CLEAR     66  66 100 CALM      30.08F
STAFFORD*      CLEAR     62  62 100 NW3       30.13F FOG

$$

NCZ024-NYZ072-PAZ021-071-VAZ022-071-270600-
OTHER REGIONAL OBSERVATIONS

CITY           SKY/WX    TMP DP  RH WIND       PRES   REMARKS
NEW YORK CITY  CLEAR     73  47  39 VRB3      30.10F
PHILADELPHIA   CLEAR     71  63  75 SW3       30.09F
PITTSBURGH     PTCLDY    70  63  78 CALM      30.10R
ROANOKE        CLEAR     60  58  92 CALM      30.16F
RICHMOND       CLEAR     66  61  84 CALM      30.08F
RALEIGH        PTCLDY    66  62  87 CALM      30.09S

$$

ANZ530>537-270600-
MARINE OBSERVATIONS

STATION/POSITION TIME  TEMP    WIND        PRES
                       AIR SEA DIR/SP/G
                 (UTC) (F)     (DEG/KT/KT) (MB)
THOMAS PT LIGHT  0500   74 78  160/  8/  9 1019.3F
BALT KEY BRIDGE  0500   79     150/  9/ 10 1018.1F
COVE POINT       0500   72     250/  4/  4 1018.4S
LEWISETTA        0500   69 77  220/  2/  3 1018.1S
SOLOMONS ISLAND  0500      80                N/A
PINEY POINT      0500           40/  3/  3   N/A

$$



USA.gov is the U.S. government's official web portal to all federal, state and local government web resources and services.